Voltar ao catálogo

CZ-6A DEB

AtivoSSO
NORAD 54344·DEBRIS·🇨🇳 China

Lançado Nov 11, 2022 de Taiyuan Satellite Launch Center

Loading…

Próximas Passagens (próximas 24 horas)

TLE

AtualizadoSource: Space-Track

Época: Sep 14, 2026, 09:53 UTC

1 54344U 22151CP  26257.41229067  .00000204  00000-0  14480-3 0  9990
2 54344  98.8694 252.1770 0057384 108.4473 252.2945 14.07309304196651

Acompanhe CZ-6A DEB em tempo real com AllMySat

Download on the App Store